Time,TemperatureF,DewpointF,PressureIn,WindDirection,WindDirectionDegrees,WindSpeedMPH,WindSpeedGustMPH,Humidity,HourlyPrecipIn,Conditions,Clouds,dailyrainin,SoftwareType,DateUTC
2013-11-21 00:02:00,18.5,13.8,30.19,NNE,23,14.3,18.4,82,0.00,,,0.00,WUHU216HW,2013-11-21 06:02:00,
2013-11-21 00:07:00,18.5,13.8,30.19,NNW,338,20.9,20.9,82,0.00,,,0.00,WUHU216HW,2013-11-21 06:07:00,
2013-11-21 00:12:00,18.5,13.8,30.20,NNW,338,23.4,27.4,82,0.00,,,0.00,WUHU216HW,2013-11-21 06:12:00,
2013-11-21 00:17:00,18.3,13.6,30.19,North,0,10.9,27.4,82,0.00,,,0.00,WUHU216HW,2013-11-21 06:17:00,
2013-11-21 00:22:00,18.3,13.3,30.19,NNE,23,20.9,20.9,81,0.00,,,0.00,WUHU216HW,2013-11-21 06:22:00,
2013-11-21 00:27:00,18.1,13.1,30.19,West,270,15.6,20.9,81,0.00,,,0.00,WUHU216HW,2013-11-21 06:27:00,
2013-11-21 00:32:00,18.1,13.1,30.19,NNW,338,8.0,15.6,81,0.00,,,0.00,WUHU216HW,2013-11-21 06:32:00,
2013-11-21 00:37:00,17.9,13.0,30.20,North,0,14.5,19.8,81,0.00,,,0.00,WUHU216HW,2013-11-21 06:37:00,
2013-11-21 00:42:00,17.9,13.0,30.21,North,0,18.1,19.8,81,0.00,,,0.00,WUHU216HW,2013-11-21 06:42:00,
2013-11-21 00:47:00,17.9,13.0,30.20,North,0,19.5,19.5,81,0.00,,,0.00,WUHU216HW,2013-11-21 06:47:00,
2013-11-21 00:52:00,18.1,13.1,30.20,NNE,23,10.3,23.4,81,0.00,,,0.00,WUHU216HW,2013-11-21 06:52:00,
2013-11-21 00:57:00,18.1,13.1,30.20,NW,315,21.3,23.4,81,0.00,,,0.00,WUHU216HW,2013-11-21 06:57:00,
2013-11-21 01:02:00,18.1,12.9,30.20,NNW,338,28.5,28.5,80,0.00,,,0.00,WUHU216HW,2013-11-21 07:02:00,
2013-11-21 01:07:00,17.7,12.5,30.21,North,0,13.6,28.5,80,0.00,,,0.00,WUHU216HW,2013-11-21 07:07:00,
2013-11-21 01:12:00,17.4,12.2,30.21,North,0,22.9,22.9,80,0.00,,,0.00,WUHU216HW,2013-11-21 07:12:00,
2013-11-21 01:17:00,17.4,12.2,30.21,NNW,338,16.4,26.3,80,0.00,,,0.00,WUHU216HW,2013-11-21 07:17:00,
2013-11-21 01:22:00,17.2,12.0,30.22,NNW,338,17.3,26.3,80,0.00,,,0.00,WUHU216HW,2013-11-21 07:22:00,
2013-11-21 01:27:00,17.2,12.3,30.22,NNW,338,18.4,24.3,81,0.00,,,0.00,WUHU216HW,2013-11-21 07:27:00,
2013-11-21 01:32:00,16.8,11.7,30.22,NW,324,13.8,24.3,80,0.00,,,0.00,WUHU216HW,2013-11-21 07:32:00,
2013-11-21 01:37:00,16.8,11.7,30.23,NNW,345,18.4,24.3,80,0.00,,,0.00,WUHU216HW,2013-11-21 07:37:00,
2013-11-21 01:42:00,16.8,11.7,30.23,North,0,11.1,24.3,80,0.00,,,0.00,WUHU216HW,2013-11-21 07:42:00,
2013-11-21 01:47:00,16.8,11.7,30.23,North,0,22.7,25.6,80,0.00,,,0.00,WUHU216HW,2013-11-21 07:47:00,
2013-11-21 01:52:00,17.0,12.1,30.23,NNW,338,7.8,31.5,81,0.00,,,0.00,WUHU216HW,2013-11-21 07:52:00,
2013-11-21 01:57:00,16.8,11.7,30.24,NNW,338,24.3,31.5,80,0.00,,,0.00,WUHU216HW,2013-11-21 07:57:00,
2013-11-21 02:01:00,16.8,11.7,30.24,NW,315,19.0,24.3,80,0.00,,,0.00,WUHU216HW,2013-11-21 08:01:00,
2013-11-21 02:06:00,16.8,11.7,30.24,North,0,16.4,25.4,80,0.00,,,0.00,WUHU216HW,2013-11-21 08:06:00,
2013-11-21 02:11:00,16.8,11.9,30.24,WNW,293,16.1,25.4,81,0.00,,,0.00,WUHU216HW,2013-11-21 08:11:00,
2013-11-21 02:16:00,16.3,10.9,30.25,NW,325,22.2,25.1,79,0.00,,,0.00,WUHU216HW,2013-11-21 08:16:00,
2013-11-21 02:21:00,15.9,10.6,30.24,NNW,337,18.1,25.1,79,0.00,,,0.00,WUHU216HW,2013-11-21 08:21:00,
2013-11-21 02:26:00,15.8,10.4,30.26,North,0,15.6,19.3,79,0.00,,,0.00,WUHU216HW,2013-11-21 08:26:00,
2013-11-21 02:31:00,15.6,10.5,30.26,NNW,333,15.9,25.6,80,0.00,,,0.00,WUHU216HW,2013-11-21 08:31:00,
2013-11-21 02:36:00,15.6,10.5,30.26,NNW,332,16.9,26.0,80,0.00,,,0.00,WUHU216HW,2013-11-21 08:36:00,
2013-11-21 02:41:00,15.6,10.5,30.27,NNW,338,14.3,26.0,80,0.00,,,0.00,WUHU216HW,2013-11-21 08:41:00,
2013-11-21 02:46:00,15.6,10.8,30.27,North,355,12.8,23.1,81,0.00,,,0.00,WUHU216HW,2013-11-21 08:46:00,
2013-11-21 02:51:00,15.4,10.0,30.27,NNW,338,23.8,23.8,79,0.00,,,0.00,WUHU216HW,2013-11-21 08:51:00,
2013-11-21 02:56:00,15.0,9.7,30.28,North,0,11.1,26.5,79,0.00,,,0.00,WUHU216HW,2013-11-21 08:56:00,
2013-11-21 03:01:00,15.0,10.0,30.28,North,0,22.6,26.5,80,0.00,,,0.00,WUHU216HW,2013-11-21 09:01:00,
2013-11-21 03:06:00,15.0,10.0,30.28,NNW,338,17.0,22.6,80,0.00,,,0.00,WUHU216HW,2013-11-21 09:06:00,
2013-11-21 03:11:00,15.0,10.0,30.29,NW,315,12.0,24.5,80,0.00,,,0.00,WUHU216HW,2013-11-21 09:11:00,
2013-11-21 03:16:00,14.9,9.8,30.29,North,0,9.8,24.5,80,0.00,,,0.00,WUHU216HW,2013-11-21 09:16:00,
2013-11-21 03:21:00,14.9,9.5,30.30,NNW,338,21.4,27.4,79,0.00,,,0.00,WUHU216HW,2013-11-21 09:21:00,
2013-11-21 03:26:00,14.7,9.3,30.29,WNW,293,20.4,27.4,79,0.00,,,0.00,WUHU216HW,2013-11-21 09:26:00,
2013-11-21 03:31:00,14.7,9.3,30.30,North,0,23.1,23.1,79,0.00,,,0.00,WUHU216HW,2013-11-21 09:31:00,
2013-11-21 03:36:00,14.7,9.6,30.29,North,0,25.4,25.4,80,0.00,,,0.00,WUHU216HW,2013-11-21 09:36:00,
2013-11-21 03:41:00,14.7,9.3,30.30,North,0,20.6,28.5,79,0.00,,,0.00,WUHU216HW,2013-11-21 09:41:00,
2013-11-21 03:46:00,14.5,9.5,30.30,NNW,338,4.8,28.5,80,0.00,,,0.00,WUHU216HW,2013-11-21 09:46:00,
2013-11-21 03:51:00,14.7,9.9,30.30,NNW,338,8.8,17.0,81,0.00,,,0.00,WUHU216HW,2013-11-21 09:51:00,
2013-11-21 03:56:00,14.5,9.5,30.30,North,0,19.3,19.3,80,0.00,,,0.00,WUHU216HW,2013-11-21 09:56:00,
2013-11-21 04:01:00,14.3,9.5,30.30,NNW,338,6.4,19.3,81,0.00,,,0.00,WUHU216HW,2013-11-21 10:01:00,
2013-11-21 04:06:00,14.1,9.1,30.30,NNW,338,14.6,20.1,80,0.00,,,0.00,WUHU216HW,2013-11-21 10:06:00,
2013-11-21 04:11:00,14.1,9.3,30.30,North,0,3.6,20.1,81,0.00,,,0.00,WUHU216HW,2013-11-21 10:11:00,
2013-11-21 04:16:00,14.1,9.1,30.30,NW,315,13.6,17.3,80,0.00,,,0.00,WUHU216HW,2013-11-21 10:16:00,
2013-11-21 04:21:00,14.1,9.1,30.30,NW,322,14.1,19.8,80,0.00,,,0.00,WUHU216HW,2013-11-21 10:21:00,
2013-11-21 04:26:00,14.1,9.1,30.31,North,0,9.8,22.9,80,0.00,,,0.00,WUHU216HW,2013-11-21 10:26:00,
2013-11-21 04:31:00,14.1,9.3,30.32,NNW,338,15.0,22.9,81,0.00,,,0.00,WUHU216HW,2013-11-21 10:31:00,
2013-11-21 04:36:00,14.0,8.9,30.32,NW,325,21.3,23.1,80,0.00,,,0.00,WUHU216HW,2013-11-21 10:36:00,
2013-11-21 04:41:00,13.8,8.7,30.32,NW,315,12.5,23.1,80,0.00,,,0.00,WUHU216HW,2013-11-21 10:41:00,
2013-11-21 04:46:00,13.8,8.7,30.32,NNW,338,14.3,19.5,80,0.00,,,0.00,WUHU216HW,2013-11-21 10:46:00,
2013-11-21 04:51:00,13.8,8.7,30.32,NNE,23,19.3,30.4,80,0.00,,,0.00,WUHU216HW,2013-11-21 10:51:00,
2013-11-21 04:56:00,13.6,8.6,30.32,North,0,25.1,30.4,80,0.00,,,0.00,WUHU216HW,2013-11-21 10:56:00,
2013-11-21 05:01:00,13.6,8.8,30.32,North,0,20.9,25.1,81,0.00,,,0.00,WUHU216HW,2013-11-21 11:01:00,
2013-11-21 05:06:00,13.6,8.6,30.32,NNW,338,23.8,25.1,80,0.00,,,0.00,WUHU216HW,2013-11-21 11:06:00,
2013-11-21 05:11:00,13.6,8.6,30.32,North,0,19.9,23.8,80,0.00,,,0.00,WUHU216HW,2013-11-21 11:11:00,
2013-11-21 05:16:00,13.6,8.8,30.33,NNW,338,9.1,21.3,81,0.00,,,0.00,WUHU216HW,2013-11-21 11:16:00,
2013-11-21 05:21:00,13.6,8.6,30.32,North,0,14.5,21.3,80,0.00,,,0.00,WUHU216HW,2013-11-21 11:21:00,
2013-11-21 05:26:00,13.6,8.6,30.34,North,0,27.4,27.4,80,0.00,,,0.00,WUHU216HW,2013-11-21 11:26:00,
2013-11-21 05:31:00,13.6,8.6,30.34,NNE,23,21.8,27.4,80,0.00,,,0.00,WUHU216HW,2013-11-21 11:31:00,
2013-11-21 05:36:00,13.6,8.6,30.34,NNE,23,19.3,27.4,80,0.00,,,0.00,WUHU216HW,2013-11-21 11:36:00,
2013-11-21 05:41:00,13.2,7.9,30.34,NNE,23,32.9,32.9,79,0.00,,,0.00,WUHU216HW,2013-11-21 11:41:00,
2013-11-21 05:46:00,13.2,7.9,30.35,NNW,347,22.7,32.9,79,0.00,,,0.00,WUHU216HW,2013-11-21 11:46:00,
2013-11-21 05:51:00,13.2,7.9,30.35,North,0,15.9,25.6,79,0.00,,,0.00,WUHU216HW,2013-11-21 11:51:00,
2013-11-21 05:56:00,13.2,7.9,30.36,North,0,17.9,24.3,79,0.00,,,0.00,WUHU216HW,2013-11-21 11:56:00,
2013-11-21 06:01:00,13.2,7.9,30.36,North,0,19.5,24.3,79,0.00,,,0.00,WUHU216HW,2013-11-21 12:01:00,
2013-11-21 06:06:00,13.2,7.9,30.37,North,0,18.6,19.5,79,0.00,,,0.00,WUHU216HW,2013-11-21 12:06:00,
2013-11-21 06:11:00,13.2,8.2,30.37,North,0,23.8,23.8,80,0.00,,,0.00,WUHU216HW,2013-11-21 12:11:00,
2013-11-21 06:16:00,13.2,8.2,30.37,North,0,25.6,25.6,80,0.00,,,0.00,WUHU216HW,2013-11-21 12:16:00,
2013-11-21 06:21:00,13.2,8.2,30.37,NNE,23,10.0,25.6,80,0.00,,,0.00,WUHU216HW,2013-11-21 12:21:00,
2013-11-21 06:26:00,13.6,8.6,30.37,NNW,338,11.6,25.6,80,0.00,,,0.00,WUHU216HW,2013-11-21 12:26:00,
2013-11-21 06:31:00,13.6,8.6,30.37,NNW,348,19.6,21.8,80,0.00,,,0.00,WUHU216HW,2013-11-21 12:31:00,
2013-11-21 06:36:00,13.6,8.6,30.37,North,0,23.4,23.8,80,0.00,,,0.00,WUHU216HW,2013-11-21 12:36:00,
2013-11-21 06:41:00,13.6,8.3,30.37,North,0,15.4,23.8,79,0.00,,,0.00,WUHU216HW,2013-11-21 12:41:00,
2013-11-21 06:46:00,13.6,8.6,30.37,NNW,338,21.3,21.8,80,0.00,,,0.00,WUHU216HW,2013-11-21 12:46:00,
2013-11-21 06:51:00,13.6,8.3,30.37,NNW,338,27.6,27.6,79,0.00,,,0.00,WUHU216HW,2013-11-21 12:51:00,
2013-11-21 06:56:00,13.6,8.3,30.37,North,0,10.3,27.6,79,0.00,,,0.00,WUHU216HW,2013-11-21 12:56:00,
2013-11-21 07:01:00,13.6,8.3,30.38,North,0,3.9,27.6,79,0.00,,,0.00,WUHU216HW,2013-11-21 13:01:00,
2013-11-21 07:06:00,13.6,8.0,30.39,North,0,25.1,25.1,78,0.00,,,0.00,WUHU216HW,2013-11-21 13:06:00,
2013-11-21 07:11:00,13.6,8.0,30.39,North,0,24.3,25.1,78,0.00,,,0.00,WUHU216HW,2013-11-21 13:11:00,
2013-11-21 07:16:00,13.6,8.0,30.40,NNE,23,5.3,25.1,78,0.00,,,0.00,WUHU216HW,2013-11-21 13:16:00,
2013-11-21 07:21:00,13.2,7.6,30.40,NNW,335,17.9,22.6,78,0.00,,,0.00,WUHU216HW,2013-11-21 13:21:00,
2013-11-21 07:26:00,13.2,7.6,30.40,NNW,338,17.3,19.8,78,0.00,,,0.00,WUHU216HW,2013-11-21 13:26:00,
2013-11-21 07:31:00,13.2,7.6,30.40,NNW,338,19.5,19.5,78,0.00,,,0.00,WUHU216HW,2013-11-21 13:31:00,
2013-11-21 07:36:00,13.2,7.6,30.40,North,351,20.3,24.5,78,0.00,,,0.00,WUHU216HW,2013-11-21 13:36:00,
2013-11-21 07:41:00,13.1,7.4,30.41,North,0,17.0,24.5,78,0.00,,,0.00,WUHU216HW,2013-11-21 13:41:00,
2013-11-21 07:46:00,13.2,7.9,30.41,North,0,5.5,22.9,79,0.00,,,0.00,WUHU216HW,2013-11-21 13:46:00,
2013-11-21 07:51:00,13.2,7.9,30.42,NNW,338,24.9,24.9,79,0.00,,,0.00,WUHU216HW,2013-11-21 13:51:00,
2013-11-21 07:56:00,12.9,7.3,30.42,NNW,338,25.1,25.1,78,0.00,,,0.00,WUHU216HW,2013-11-21 13:56:00,
2013-11-21 08:01:00,12.9,7.3,30.42,NNW,338,15.6,25.1,78,0.00,,,0.00,WUHU216HW,2013-11-21 14:01:00,
2013-11-21 08:06:00,12.9,7.3,30.42,NNW,338,17.9,25.1,78,0.00,,,0.00,WUHU216HW,2013-11-21 14:06:00,
2013-11-21 08:11:00,12.9,7.3,30.42,NNW,338,12.0,22.6,78,0.00,,,0.00,WUHU216HW,2013-11-21 14:11:00,
2013-11-21 08:16:00,12.7,7.1,30.43,North,0,19.9,25.1,78,0.00,,,0.00,WUHU216HW,2013-11-21 14:16:00,
2013-11-21 08:21:00,12.7,7.4,30.43,North,0,18.1,25.1,79,0.00,,,0.00,WUHU216HW,2013-11-21 14:21:00,
2013-11-21 08:26:00,12.7,7.4,30.44,NNW,338,16.1,18.1,79,0.00,,,0.00,WUHU216HW,2013-11-21 14:26:00,
2013-11-21 08:31:00,12.7,7.7,30.44,North,0,20.6,32.6,80,0.00,,,0.00,WUHU216HW,2013-11-21 14:31:00,
2013-11-21 08:36:00,12.7,7.7,30.44,North,0,13.6,32.6,80,0.00,,,0.00,WUHU216HW,2013-11-21 14:36:00,
2013-11-21 08:41:00,12.9,7.8,30.45,NW,315,19.0,19.0,80,0.00,,,0.00,WUHU216HW,2013-11-21 14:41:00,
2013-11-21 08:46:00,12.9,7.8,30.45,North,0,14.5,19.0,80,0.00,,,0.00,WUHU216HW,2013-11-21 14:46:00,
2013-11-21 08:51:00,12.7,7.1,30.45,NNE,23,26.3,27.4,78,0.00,,,0.00,WUHU216HW,2013-11-21 14:51:00,
2013-11-21 08:56:00,12.7,7.4,30.45,North,0,23.1,27.4,79,0.00,,,0.00,WUHU216HW,2013-11-21 14:56:00,
2013-11-21 09:01:00,12.9,7.5,30.45,NNW,338,14.3,26.3,79,0.00,,,0.00,WUHU216HW,2013-11-21 15:01:00,
2013-11-21 09:06:00,12.9,7.3,30.45,North,0,24.8,27.4,78,0.00,,,0.00,WUHU216HW,2013-11-21 15:06:00,
2013-11-21 09:11:00,13.1,7.4,30.46,NNW,338,23.8,27.4,78,0.00,,,0.00,WUHU216HW,2013-11-21 15:11:00,
2013-11-21 09:16:00,13.2,7.6,30.46,North,0,22.0,23.8,78,0.00,,,0.00,WUHU216HW,2013-11-21 15:16:00,
2013-11-21 09:21:00,13.6,8.0,30.46,North,0,20.4,23.4,78,0.00,,,0.00,WUHU216HW,2013-11-21 15:21:00,
2013-11-21 09:26:00,13.6,7.7,30.46,North,0,24.6,30.8,77,0.00,,,0.00,WUHU216HW,2013-11-21 15:26:00,
2013-11-21 09:31:00,13.6,8.0,30.46,North,0,18.1,30.8,78,0.00,,,0.00,WUHU216HW,2013-11-21 15:31:00,
2013-11-21 09:36:00,13.8,8.2,30.46,North,0,17.5,23.8,78,0.00,,,0.00,WUHU216HW,2013-11-21 15:36:00,
2013-11-21 09:41:00,14.1,8.2,30.46,NNW,338,23.4,23.8,77,0.00,,,0.00,WUHU216HW,2013-11-21 15:41:00,
2013-11-21 09:46:00,13.8,7.6,30.46,North,0,17.4,23.4,76,0.00,,,0.00,WUHU216HW,2013-11-21 15:46:00,
2013-11-21 09:51:00,13.8,7.9,30.46,North,0,18.7,23.8,77,0.00,,,0.00,WUHU216HW,2013-11-21 15:51:00,
2013-11-21 09:56:00,14.0,8.3,30.46,North,0,16.4,23.8,78,0.00,,,0.00,WUHU216HW,2013-11-21 15:56:00,
2013-11-21 10:01:00,13.8,7.9,30.47,North,350,19.3,21.5,77,0.00,,,0.00,WUHU216HW,2013-11-21 16:01:00,
2013-11-21 10:06:00,13.8,7.9,30.47,NNE,12,18.3,21.5,77,0.00,,,0.00,WUHU216HW,2013-11-21 16:06:00,
2013-11-21 10:11:00,14.1,7.9,30.47,North,0,8.4,23.1,76,0.00,,,0.00,WUHU216HW,2013-11-21 16:11:00,
2013-11-21 10:16:00,14.7,8.6,30.47,NNW,338,26.5,26.5,77,0.00,,,0.00,WUHU216HW,2013-11-21 16:16:00,
2013-11-21 10:21:00,14.5,7.7,30.48,North,0,17.3,26.5,74,0.00,,,0.00,WUHU216HW,2013-11-21 16:21:00,
2013-11-21 10:26:00,14.3,7.5,30.48,NNE,23,24.9,26.5,74,0.00,,,0.00,WUHU216HW,2013-11-21 16:26:00,
2013-11-21 10:31:00,14.1,7.3,30.48,NNW,338,20.1,24.9,74,0.00,,,0.00,WUHU216HW,2013-11-21 16:31:00,
2013-11-21 10:36:00,14.1,7.6,30.48,NNE,23,22.9,22.9,75,0.00,,,0.00,WUHU216HW,2013-11-21 16:36:00,
2013-11-21 10:41:00,14.1,7.6,30.48,North,0,14.5,22.9,75,0.00,,,0.00,WUHU216HW,2013-11-21 16:41:00,
2013-11-21 10:46:00,14.1,7.1,30.48,North,0,24.3,24.3,73,0.00,,,0.00,WUHU216HW,2013-11-21 16:46:00,
2013-11-21 10:51:00,14.1,7.3,30.48,North,0,16.1,24.3,74,0.00,,,0.00,WUHU216HW,2013-11-21 16:51:00,
2013-11-21 10:56:00,14.5,7.4,30.48,North,0,15.0,24.5,73,0.00,,,0.00,WUHU216HW,2013-11-21 16:56:00,
2013-11-21 11:01:00,14.3,7.2,30.49,North,0,22.6,24.5,73,0.00,,,0.00,WUHU216HW,2013-11-21 17:01:00,
2013-11-21 11:06:00,14.5,7.4,30.49,NNW,345,16.9,25.1,73,0.00,,,0.00,WUHU216HW,2013-11-21 17:06:00,
2013-11-21 11:11:00,14.7,7.6,30.49,North,0,25.6,25.6,73,0.00,,,0.00,WUHU216HW,2013-11-21 17:11:00,
2013-11-21 11:16:00,14.7,7.3,30.49,North,0,9.1,25.6,72,0.00,,,0.00,WUHU216HW,2013-11-21 17:16:00,
2013-11-21 11:20:00,14.3,7.2,30.49,North,0,15.3,26.3,73,0.00,,,0.00,WUHU216HW,2013-11-21 17:20:00,
2013-11-21 11:25:00,14.3,6.9,30.49,North,0,27.0,27.0,72,0.00,,,0.00,WUHU216HW,2013-11-21 17:25:00,
2013-11-21 11:30:00,14.1,6.8,30.49,North,0,19.0,27.0,72,0.00,,,0.00,WUHU216HW,2013-11-21 17:30:00,
2013-11-21 11:35:00,14.1,6.8,30.49,North,0,10.3,27.0,72,0.00,,,0.00,WUHU216HW,2013-11-21 17:35:00,
2013-11-21 11:40:00,14.1,7.1,30.49,NNW,338,10.3,19.5,73,0.00,,,0.00,WUHU216HW,2013-11-21 17:40:00,
2013-11-21 11:45:00,14.3,6.9,30.50,North,0,10.9,21.3,72,0.00,,,0.00,WUHU216HW,2013-11-21 17:45:00,
2013-11-21 11:50:00,14.3,6.6,30.49,NNW,338,22.9,28.1,71,0.00,,,0.00,WUHU216HW,2013-11-21 17:50:00,
2013-11-21 11:55:00,14.1,6.2,30.49,North,0,26.5,28.1,70,0.00,,,0.00,WUHU216HW,2013-11-21 17:55:00,
2013-11-21 12:00:00,14.1,6.2,30.50,NNW,338,20.6,26.5,70,0.00,,,0.00,WUHU216HW,2013-11-21 18:00:00,
2013-11-21 12:05:00,14.1,6.2,30.50,North,0,15.4,20.6,70,0.00,,,0.00,WUHU216HW,2013-11-21 18:05:00,
2013-11-21 12:10:00,14.1,6.6,30.50,North,0,18.9,23.4,71,0.00,,,0.00,WUHU216HW,2013-11-21 18:10:00,
2013-11-21 12:15:00,14.7,6.8,30.50,North,0,18.1,23.4,71,0.00,,,0.00,WUHU216HW,2013-11-21 18:15:00,
2013-11-21 12:20:00,14.7,6.7,30.50,NNW,338,22.9,22.9,70,0.00,,,0.00,WUHU216HW,2013-11-21 18:20:00,
2013-11-21 12:25:00,14.7,7.0,30.50,NNE,23,26.8,26.8,70,0.00,,,0.00,WUHU216HW,2013-11-21 18:25:00,
2013-11-21 12:30:00,14.7,6.3,30.50,North,11,15.4,26.8,69,0.00,,,0.00,WUHU216HW,2013-11-21 18:30:00,
2013-11-21 12:35:00,14.9,6.8,30.50,NNW,338,16.1,26.8,70,0.00,,,0.00,WUHU216HW,2013-11-21 18:35:00,
2013-11-21 12:40:00,15.4,7.0,30.50,North,0,17.5,20.1,69,0.00,,,0.00,WUHU216HW,2013-11-21 18:40:00,
2013-11-21 12:45:00,15.2,6.8,30.50,North,0,19.0,19.0,69,0.00,,,0.00,WUHU216HW,2013-11-21 18:45:00,
2013-11-21 12:50:00,15.4,6.6,30.50,NNW,346,8.4,19.0,68,0.00,,,0.00,WUHU216HW,2013-11-21 18:50:00,
2013-11-21 12:55:00,15.6,7.1,30.50,North,0,17.0,19.0,69,0.00,,,0.00,WUHU216HW,2013-11-21 18:55:00,
2013-11-21 13:00:00,15.9,7.1,30.50,North,0,19.3,19.3,68,0.00,,,0.00,WUHU216HW,2013-11-21 19:00:00,
2013-11-21 13:05:00,15.8,7.0,30.50,NNW,345,20.1,27.0,68,0.00,,,0.00,WUHU216HW,2013-11-21 19:05:00,
2013-11-21 13:10:00,15.6,6.8,30.50,North,0,20.1,27.0,68,0.00,,,0.00,WUHU216HW,2013-11-21 19:10:00,
2013-11-21 13:15:00,15.6,6.8,30.50,NNW,338,21.3,26.8,68,0.00,,,0.00,WUHU216HW,2013-11-21 19:15:00,
2013-11-21 13:20:00,15.6,6.5,30.50,North,0,15.3,26.8,67,0.00,,,0.00,WUHU216HW,2013-11-21 19:20:00,
2013-11-21 13:25:00,15.9,6.8,30.51,North,0,15.4,23.4,67,0.00,,,0.00,WUHU216HW,2013-11-21 19:25:00,
2013-11-21 13:30:00,16.1,6.3,30.50,North,0,30.1,30.1,65,0.00,,,0.00,WUHU216HW,2013-11-21 19:30:00,
2013-11-21 13:35:00,15.6,5.8,30.50,North,352,15.8,30.1,65,0.00,,,0.00,WUHU216HW,2013-11-21 19:35:00,
2013-11-21 13:40:00,15.8,5.9,30.50,North,0,7.3,26.0,65,0.00,,,0.00,WUHU216HW,2013-11-21 19:40:00,
2013-11-21 13:45:00,15.9,6.8,30.50,North,0,12.0,17.9,67,0.00,,,0.00,WUHU216HW,2013-11-21 19:45:00,
2013-11-21 13:50:00,16.1,6.0,30.50,NNW,327,21.4,22.6,64,0.00,,,0.00,WUHU216HW,2013-11-21 19:50:00,
2013-11-21 13:55:00,15.6,5.4,30.50,NNW,338,15.6,22.6,64,0.00,,,0.00,WUHU216HW,2013-11-21 19:55:00,
2013-11-21 14:00:00,15.6,5.8,30.50,NNW,338,19.3,23.8,65,0.00,,,0.00,WUHU216HW,2013-11-21 20:00:00,
2013-11-21 14:05:00,15.6,5.8,30.50,North,0,16.3,23.8,65,0.00,,,0.00,WUHU216HW,2013-11-21 20:05:00,
2013-11-21 14:10:00,15.6,5.8,30.50,North,0,8.6,16.8,65,0.00,,,0.00,WUHU216HW,2013-11-21 20:10:00,
2013-11-21 14:15:00,15.2,5.5,30.50,NNW,338,22.0,22.0,65,0.00,,,0.00,WUHU216HW,2013-11-21 20:15:00,
2013-11-21 14:20:00,14.9,5.1,30.50,North,0,17.5,22.6,65,0.00,,,0.00,WUHU216HW,2013-11-21 20:20:00,
2013-11-21 14:25:00,14.9,5.5,30.50,NNW,338,16.8,22.6,66,0.00,,,0.00,WUHU216HW,2013-11-21 20:25:00,
2013-11-21 14:30:00,14.7,5.3,30.50,NNW,338,15.9,20.9,66,0.00,,,0.00,WUHU216HW,2013-11-21 20:30:00,
2013-11-21 14:35:00,14.7,5.7,30.51,North,0,14.8,20.9,67,0.00,,,0.00,WUHU216HW,2013-11-21 20:35:00,
2013-11-21 14:40:00,14.9,5.8,30.51,NNW,338,19.3,22.9,67,0.00,,,0.00,WUHU216HW,2013-11-21 20:40:00,
2013-11-21 14:45:00,14.7,5.3,30.51,NNW,338,11.1,22.9,66,0.00,,,0.00,WUHU216HW,2013-11-21 20:45:00,
2013-11-21 14:50:00,14.3,5.0,30.51,North,0,20.4,20.9,66,0.00,,,0.00,WUHU216HW,2013-11-21 20:50:00,
2013-11-21 14:55:00,14.3,5.3,30.51,North,0,13.6,20.9,67,0.00,,,0.00,WUHU216HW,2013-11-21 20:55:00,
2013-11-21 15:00:00,14.1,5.2,30.51,NNW,338,22.9,22.9,67,0.00,,,0.00,WUHU216HW,2013-11-21 21:00:00,
2013-11-21 15:05:00,14.1,5.5,30.51,NW,324,13.1,22.9,68,0.00,,,0.00,WUHU216HW,2013-11-21 21:05:00,
2013-11-21 15:10:00,14.1,5.5,30.51,NNW,338,19.5,21.3,68,0.00,,,0.00,WUHU216HW,2013-11-21 21:10:00,
2013-11-21 15:15:00,13.8,5.2,30.52,NNE,23,10.9,21.3,68,0.00,,,0.00,WUHU216HW,2013-11-21 21:15:00,
2013-11-21 15:20:00,13.8,5.2,30.52,NW,315,16.8,19.5,68,0.00,,,0.00,WUHU216HW,2013-11-21 21:20:00,
2013-11-21 15:25:00,13.8,5.2,30.52,NNW,338,24.5,24.5,68,0.00,,,0.00,WUHU216HW,2013-11-21 21:25:00,
2013-11-21 15:30:00,13.6,5.0,30.53,NNW,338,16.4,24.5,68,0.00,,,0.00,WUHU216HW,2013-11-21 21:30:00,
2013-11-21 15:35:00,13.2,5.0,30.53,NNW,334,12.0,16.4,69,0.00,,,0.00,WUHU216HW,2013-11-21 21:35:00,
2013-11-21 15:40:00,13.6,5.7,30.53,NW,315,12.0,14.5,70,0.00,,,0.00,WUHU216HW,2013-11-21 21:40:00,
2013-11-21 15:45:00,13.6,5.7,30.53,North,0,12.0,12.0,70,0.00,,,0.00,WUHU216HW,2013-11-21 21:45:00,
2013-11-21 15:50:00,13.6,6.0,30.53,NW,326,6.5,12.0,71,0.00,,,0.00,WUHU216HW,2013-11-21 21:50:00,
2013-11-21 15:55:00,13.6,6.0,30.53,NNW,338,18.1,18.1,71,0.00,,,0.00,WUHU216HW,2013-11-21 21:55:00,
2013-11-21 16:00:00,13.6,6.0,30.55,North,0,8.9,18.1,71,0.00,,,0.00,WUHU216HW,2013-11-21 22:00:00,
2013-11-21 16:05:00,13.6,6.0,30.55,North,0,8.9,13.9,71,0.00,,,0.00,WUHU216HW,2013-11-21 22:05:00,
2013-11-21 16:10:00,13.6,6.0,30.54,NNW,338,11.6,13.9,71,0.00,,,0.00,WUHU216HW,2013-11-21 22:10:00,
2013-11-21 16:15:00,13.6,6.0,30.55,North,0,13.1,13.1,71,0.00,,,0.00,WUHU216HW,2013-11-21 22:15:00,
2013-11-21 16:20:00,13.6,6.0,30.55,North,0,12.0,15.0,71,0.00,,,0.00,WUHU216HW,2013-11-21 22:20:00,
2013-11-21 16:25:00,13.2,5.6,30.55,North,0,13.1,16.1,71,0.00,,,0.00,WUHU216HW,2013-11-21 22:25:00,
2013-11-21 16:30:00,13.2,6.2,30.55,North,0,7.5,16.1,73,0.00,,,0.00,WUHU216HW,2013-11-21 22:30:00,
2013-11-21 16:35:00,13.1,6.0,30.56,North,0,9.5,13.6,73,0.00,,,0.00,WUHU216HW,2013-11-21 22:35:00,
2013-11-21 16:40:00,13.1,6.0,30.56,NNW,338,9.8,13.6,73,0.00,,,0.00,WUHU216HW,2013-11-21 22:40:00,
2013-11-21 16:45:00,13.1,6.0,30.56,North,0,7.5,9.8,73,0.00,,,0.00,WUHU216HW,2013-11-21 22:45:00,
2013-11-21 16:50:00,12.7,5.6,30.56,NNW,343,8.1,13.4,73,0.00,,,0.00,WUHU216HW,2013-11-21 22:50:00,
2013-11-21 16:55:00,12.7,5.3,30.56,North,0,7.5,17.0,72,0.00,,,0.00,WUHU216HW,2013-11-21 22:55:00,
2013-11-21 17:00:00,12.5,5.5,30.57,NNW,338,5.3,17.0,73,0.00,,,0.00,WUHU216HW,2013-11-21 23:00:00,
2013-11-21 17:05:00,12.2,5.1,30.57,NNW,338,10.0,11.6,73,0.00,,,0.00,WUHU216HW,2013-11-21 23:05:00,
2013-11-21 17:10:00,12.2,5.1,30.57,NNW,338,8.9,10.0,73,0.00,,,0.00,WUHU216HW,2013-11-21 23:10:00,
2013-11-21 17:15:00,12.2,5.1,30.57,North,0,6.1,10.0,73,0.00,,,0.00,WUHU216HW,2013-11-21 23:15:00,
2013-11-21 17:20:00,12.0,4.9,30.57,NNW,330,5.7,17.0,73,0.00,,,0.00,WUHU216HW,2013-11-21 23:20:00,
2013-11-21 17:25:00,12.0,5.2,30.58,NW,315,1.9,17.0,74,0.00,,,0.00,WUHU216HW,2013-11-21 23:25:00,
2013-11-21 17:30:00,12.0,4.9,30.58,NNW,338,4.8,9.1,73,0.00,,,0.00,WUHU216HW,2013-11-21 23:30:00,
2013-11-21 17:35:00,12.0,4.9,30.58,NW,315,7.8,9.1,73,0.00,,,0.00,WUHU216HW,2013-11-21 23:35:00,
2013-11-21 17:40:00,12.0,5.2,30.58,WNW,293,10.9,10.9,74,0.00,,,0.00,WUHU216HW,2013-11-21 23:40:00,
2013-11-21 17:51:00,11.8,4.7,30.58,NW,315,4.4,16.8,73,0.00,,,0.00,WUHU216HW,2013-11-21 23:51:00,
2013-11-21 17:56:00,11.8,5.0,30.59,NW,315,6.4,6.4,74,0.00,,,0.00,WUHU216HW,2013-11-21 23:56:00,
2013-11-21 18:01:00,11.6,4.8,30.59,NW,315,14.3,14.3,74,0.00,,,0.00,WUHU216HW,2013-11-22 00:01:00,
2013-11-21 18:06:00,11.4,4.7,30.59,NW,315,7.5,14.3,74,0.00,,,0.00,WUHU216HW,2013-11-22 00:06:00,
2013-11-21 18:11:00,11.3,4.8,30.59,NW,315,2.8,14.3,75,0.00,,,0.00,WUHU216HW,2013-11-22 00:11:00,
2013-11-21 18:16:00,11.3,4.8,30.59,WNW,293,11.4,11.4,75,0.00,,,0.00,WUHU216HW,2013-11-22 00:16:00,
2013-11-21 18:21:00,11.3,4.8,30.59,NW,315,6.5,11.4,75,0.00,,,0.00,WUHU216HW,2013-11-22 00:21:00,
2013-11-21 18:26:00,11.1,4.6,30.59,NNW,338,15.6,15.6,75,0.00,,,0.00,WUHU216HW,2013-11-22 00:26:00,
2013-11-21 18:31:00,11.1,4.6,30.59,NW,315,19.5,19.5,75,0.00,,,0.00,WUHU216HW,2013-11-22 00:31:00,
2013-11-21 18:36:00,11.1,4.6,30.59,NNW,338,5.5,19.5,75,0.00,,,0.00,WUHU216HW,2013-11-22 00:36:00,
2013-11-21 18:41:00,11.1,4.3,30.59,NW,315,11.6,11.6,74,0.00,,,0.00,WUHU216HW,2013-11-22 00:41:00,
2013-11-21 18:46:00,11.1,4.0,30.59,NW,315,8.6,11.6,73,0.00,,,0.00,WUHU216HW,2013-11-22 00:46:00,
2013-11-21 18:51:00,10.9,3.8,30.59,NW,315,7.3,8.6,73,0.00,,,0.00,WUHU216HW,2013-11-22 00:51:00,
2013-11-21 18:56:00,10.5,3.2,30.59,NNW,338,7.5,10.9,72,0.00,,,0.00,WUHU216HW,2013-11-22 00:56:00,
2013-11-21 19:01:00,10.5,3.2,30.59,NW,315,4.4,10.9,72,0.00,,,0.00,WUHU216HW,2013-11-22 01:01:00,
2013-11-21 19:06:00,10.2,3.1,30.59,NNW,338,19.8,19.8,73,0.00,,,0.00,WUHU216HW,2013-11-22 01:06:00,
2013-11-21 19:11:00,10.2,3.1,30.60,NW,315,8.0,19.8,73,0.00,,,0.00,WUHU216HW,2013-11-22 01:11:00,
2013-11-21 19:16:00,10.0,3.3,30.59,NW,315,3.6,12.8,74,0.00,,,0.00,WUHU216HW,2013-11-22 01:16:00,
2013-11-21 19:21:00,10.0,3.3,30.60,NW,324,2.3,12.8,74,0.00,,,0.00,WUHU216HW,2013-11-22 01:21:00,
2013-11-21 19:26:00,10.0,3.3,30.60,NNW,338,5.5,13.6,74,0.00,,,0.00,WUHU216HW,2013-11-22 01:26:00,
2013-11-21 19:31:00,9.6,2.9,30.60,NW,315,8.4,13.6,74,0.00,,,0.00,WUHU216HW,2013-11-22 01:31:00,
2013-11-21 19:36:00,9.6,2.9,30.60,NNW,338,13.9,13.9,74,0.00,,,0.00,WUHU216HW,2013-11-22 01:36:00,
2013-11-21 19:40:00,9.6,2.9,30.60,NW,315,13.4,13.9,74,0.00,,,0.00,WUHU216HW,2013-11-22 01:40:00,
2013-11-21 19:45:00,9.3,2.6,30.60,NW,315,2.8,13.9,74,0.00,,,0.00,WUHU216HW,2013-11-22 01:45:00,
2013-11-21 19:50:00,9.1,2.4,30.60,NNW,327,1.8,7.3,74,0.00,,,0.00,WUHU216HW,2013-11-22 01:50:00,
2013-11-21 19:55:00,8.9,2.3,30.60,NW,315,5.8,6.6,74,0.00,,,0.00,WUHU216HW,2013-11-22 01:55:00,
2013-11-21 20:00:00,8.6,2.3,30.60,NW,326,5.5,9.5,75,0.00,,,0.00,WUHU216HW,2013-11-22 02:00:00,
2013-11-21 20:05:00,8.4,1.8,30.59,NW,315,4.4,9.5,74,0.00,,,0.00,WUHU216HW,2013-11-22 02:05:00,
2013-11-21 20:08:00,8.4,1.8,30.59,NW,315,2.1,6.4,74,0.00,,,0.00,WUHU216HW,2013-11-22 02:08:00,
2013-11-21 20:09:00,8.4,1.8,30.59,NW,315,1.6,6.4,74,0.00,,,0.00,WUHU216HW,2013-11-22 02:09:00,
2013-11-21 20:14:00,8.2,1.6,30.59,NW,315,3.9,6.4,74,0.00,,,0.00,WUHU216HW,2013-11-22 02:14:00,
2013-11-21 20:19:00,8.2,1.6,30.59,NNW,336,3.1,5.8,74,0.00,,,0.00,WUHU216HW,2013-11-22 02:19:00,
2013-11-21 20:24:00,8.2,1.6,30.59,NW,315,9.8,9.8,74,0.00,,,0.00,WUHU216HW,2013-11-22 02:24:00,
2013-11-21 20:29:00,8.0,1.4,30.59,NW,315,1.6,9.8,74,0.00,,,0.00,WUHU216HW,2013-11-22 02:29:00,
2013-11-21 20:34:00,8.0,1.4,30.60,NW,315,2.1,2.1,74,0.00,,,0.00,WUHU216HW,2013-11-22 02:34:00,
2013-11-21 20:39:00,8.0,1.1,30.60,NW,315,2.5,2.5,73,0.00,,,0.00,WUHU216HW,2013-11-22 02:39:00,
2013-11-21 20:44:00,8.4,1.5,30.61,NW,315,2.5,5.8,73,0.00,,,0.00,WUHU216HW,2013-11-22 02:44:00,
2013-11-21 20:49:00,8.4,1.5,30.60,NW,315,1.4,5.8,73,0.00,,,0.00,WUHU216HW,2013-11-22 02:49:00,
2013-11-21 20:54:00,8.4,1.5,30.61,WNW,293,5.5,5.5,73,0.00,,,0.00,WUHU216HW,2013-11-22 02:54:00,
2013-11-21 20:59:00,8.4,1.8,30.61,NNW,338,3.6,5.5,74,0.00,,,0.00,WUHU216HW,2013-11-22 02:59:00,
2013-11-21 21:04:00,8.2,1.6,30.61,NW,316,5.4,5.5,74,0.00,,,0.00,WUHU216HW,2013-11-22 03:04:00,
2013-11-21 21:09:00,8.0,1.4,30.61,WNW,293,8.0,8.0,74,0.00,,,0.00,WUHU216HW,2013-11-22 03:09:00,
2013-11-21 21:14:00,7.8,1.2,30.61,WNW,293,7.3,8.0,74,0.00,,,0.00,WUHU216HW,2013-11-22 03:14:00,
2013-11-21 21:19:00,7.7,1.1,30.61,WNW,293,3.0,8.0,74,0.00,,,0.00,WUHU216HW,2013-11-22 03:19:00,
2013-11-21 21:24:00,7.5,0.9,30.61,WNW,296,3.3,7.3,74,0.00,,,0.00,WUHU216HW,2013-11-22 03:24:00,
2013-11-21 21:29:00,7.3,0.7,30.60,NW,315,5.3,6.1,74,0.00,,,0.00,WUHU216HW,2013-11-22 03:29:00,
2013-11-21 21:34:00,7.3,0.7,30.60,NW,315,1.0,5.3,74,0.00,,,0.00,WUHU216HW,2013-11-22 03:34:00,
2013-11-21 21:39:00,6.9,0.3,30.61,NW,315,1.6,5.3,74,0.00,,,0.00,WUHU216HW,2013-11-22 03:39:00,
2013-11-21 21:44:00,6.9,0.6,30.61,WNW,293,0.0,3.9,75,0.00,,,0.00,WUHU216HW,2013-11-22 03:44:00,
2013-11-21 21:49:00,6.9,0.6,30.61,WNW,293,1.6,1.6,75,0.00,,,0.00,WUHU216HW,2013-11-22 03:49:00,
2013-11-21 21:54:00,6.9,0.6,30.61,WNW,293,2.1,3.9,75,0.00,,,0.00,WUHU216HW,2013-11-22 03:54:00,
2013-11-21 21:59:00,6.9,0.6,30.61,WNW,293,0.0,3.9,75,0.00,,,0.00,WUHU216HW,2013-11-22 03:59:00,
2013-11-21 22:04:00,6.9,0.6,30.61,West,270,0.0,0.0,75,0.00,,,0.00,WUHU216HW,2013-11-22 04:04:00,
2013-11-21 22:09:00,6.6,0.3,30.61,WNW,293,0.8,1.4,75,0.00,,,0.00,WUHU216HW,2013-11-22 04:09:00,
2013-11-21 22:14:00,6.9,0.6,30.60,WNW,293,2.1,2.1,75,0.00,,,0.00,WUHU216HW,2013-11-22 04:14:00,
2013-11-21 22:19:00,6.9,0.6,30.60,WNW,293,2.8,2.8,75,0.00,,,0.00,WUHU216HW,2013-11-22 04:19:00,
2013-11-21 22:24:00,6.9,0.6,30.61,WNW,293,0.0,2.8,75,0.00,,,0.00,WUHU216HW,2013-11-22 04:24:00,
2013-11-21 22:29:00,6.9,0.9,30.60,WNW,293,4.1,5.3,76,0.00,,,0.00,WUHU216HW,2013-11-22 04:29:00,
2013-11-21 22:34:00,6.9,1.2,30.60,WNW,293,6.6,6.6,77,0.00,,,0.00,WUHU216HW,2013-11-22 04:34:00,
2013-11-21 22:39:00,7.3,1.3,30.60,WSW,248,3.6,6.6,76,0.00,,,0.00,WUHU216HW,2013-11-22 04:39:00,
2013-11-21 22:44:00,7.3,1.3,30.60,West,280,2.2,6.6,76,0.00,,,0.00,WUHU216HW,2013-11-22 04:44:00,
2013-11-21 22:49:00,7.3,1.0,30.59,West,280,1.5,5.0,75,0.00,,,0.00,WUHU216HW,2013-11-22 04:49:00,
2013-11-21 22:54:00,7.1,0.8,30.60,WNW,293,0.0,1.9,75,0.00,,,0.00,WUHU216HW,2013-11-22 04:54:00,
2013-11-21 22:59:00,7.3,1.0,30.60,WNW,293,5.5,5.5,75,0.00,,,0.00,WUHU216HW,2013-11-22 04:59:00,
2013-11-21 23:01:00,7.3,1.0,30.60,WNW,293,5.5,5.5,75,0.00,,,0.00,WUHU216HW,2013-11-22 05:01:00,
2013-11-21 23:02:00,7.3,1.0,30.60,WNW,293,3.1,5.5,75,0.00,,,0.00,WUHU216HW,2013-11-22 05:02:00,
2013-11-21 23:07:00,7.3,1.0,30.60,West,270,0.0,5.5,75,0.00,,,0.00,WUHU216HW,2013-11-22 05:07:00,
2013-11-21 23:12:00,6.9,0.6,30.60,WSW,248,2.5,4.1,75,0.00,,,0.00,WUHU216HW,2013-11-22 05:12:00,
2013-11-21 23:17:00,6.6,0.3,30.60,WSW,248,0.0,4.1,75,0.00,,,0.00,WUHU216HW,2013-11-22 05:17:00,
2013-11-21 23:22:00,6.0,-0.2,30.59,WSW,248,0.0,2.5,75,0.00,,,0.00,WUHU216HW,2013-11-22 05:22:00,
2013-11-21 23:27:00,5.5,-0.7,30.59,West,270,2.5,2.5,75,0.00,,,0.00,WUHU216HW,2013-11-22 05:27:00,
2013-11-21 23:31:00,5.5,-0.4,30.60,WSW,248,1.6,2.5,76,0.00,,,0.00,WUHU216HW,2013-11-22 05:31:00,
2013-11-21 23:36:00,5.3,-0.6,30.59,WSW,248,0.0,2.5,76,0.00,,,0.00,WUHU216HW,2013-11-22 05:36:00,
2013-11-21 23:41:00,5.0,-1.0,30.58,WSW,248,0.0,0.0,76,0.00,,,0.00,WUHU216HW,2013-11-22 05:41:00,
2013-11-21 23:46:00,4.8,-0.9,30.59,WSW,248,1.6,1.6,77,0.00,,,0.00,WUHU216HW,2013-11-22 05:46:00,
2013-11-21 23:51:00,4.8,-0.9,30.59,WSW,248,2.5,2.5,77,0.00,,,0.00,WUHU216HW,2013-11-22 05:51:00,
2013-11-21 23:56:00,4.8,-0.9,30.59,SW,234,1.2,2.5,77,0.00,,,0.00,WUHU216HW,2013-11-22 05:56:00,